Tracking 29528 objects as of 15-Sep-2024
HD Live streaming from Space Station
objects crossing your sky now

GEESAT 1-04

Track GEESAT 1-04 now!
10-day predictions


NORAD ID: 52788
Int'l Code: 2022-058D
Perigee: 600.1 km
Apogee: 603.5 km
Inclination: 50.0 °
Period: 96.6 minutes
Semi major axis: 6972 km
RCS: Unknown
Launch date: June 2, 2022
Source: People's Republic of China (PRC)
Launch site: Xichang Space Center, China (XSC)
Your satellite tracking list
Your tracking list is empty




NASA's NSSDC Master Catalog

Two Line Element Set (TLE):
1 52788U 22058D   24258.88970710  .00011748  00000-0  11958-2 0  9995
2 52788  50.0059 330.5920 0002377 241.5779 118.4924 14.91047744124307
Source of the keplerian elements: AFSPC